CZ-6A DEB, 54604

Orbit data source: Space-Track

CZ-6A DEB, 54604 is space debris in SSO originally from a launch on Fri, 11 Nov 2022 UTC launched from the Taiyaun Space Center, China (TSC). Debris objects in space refer to the collection of defunct objects orbiting the Earth. Examples of debris include non-operational satellites, rocket bodies, and fragments generated from explosions, collisions, or faulty payload assembly.

Loading next visibility...
Identifier
54604, 2022-151NE
Orbit
SSO
Country
Flag of CNCN / PRC
Related business
Manufacturer
SAST
Mission
Spacecraft
Bus & Motor
Unknown
Mass
Unknown
Launch date (UTC)
2022-11-11 (4 years ago)
Launch vehicle
Unknown
Launch site
Taiyaun Space Center, China (TSC)
Object type
Payload
Rocket body
Debris
Shape & HBR
Unknown shape, 0.2 m
Radar Cross Section
Medium (>0.1 m² and <1 m²)

Expand to show TLE details & history
Last TLE update: 2 days ago

TLE from 2 days ago
0 CZ-6A DEB
1 54604U 22151NE  26171.44991411  .00000252  00000-0  16548-3 0  9996
2 54604  98.8526 173.2777 0048695 344.2569  15.7085 14.10137913184726
Epoch: 2026-06-20T10:47Z
TLE epoch observation values (Epoch: 2026-06-20T10:47:52.579Z)
Latitude
-0.00002°
Longitude
102.64426°
Altitude
827.878 km
Speed
7.456 km/s
True Right ascension
11h 33m 06s
True Declination
0° 00' 00"
Sunlit
Object was in daylight at epoch
Visualization orbit readout
Latitude
Unknown
Longitude
Unknown
Altitude
Unknown
Speed
Unknown
Apparent Right ascension
Unknown
Apparent Declination
Unknown
Sunlit
N/A
Visualization observer readout
Local Sidereal Time
21:38:03
Azimuth
Unknown
Elevation
Unknown
Doppler factor
Unknown
Orbital elements
Apogee altitude
891.305 km
Perigee altitude
820.851 km
Semi-major axis
7,234.215 km
Eccentricity
0.00487
Inclination
98.8526°
RAAN
173.2777°
Arg. of periapsis
344.2569°
True anomaly
15.86047°
Mean anomaly
15.7085°
Eccentric anomaly
15.78439°
Mean motion
3.52741 °/min
Orbital period
102.06 mins
BSTAR
0.00016548
Loading maneuver chart data...
Computing Atmospheric mass density...
Loading historical data...
Loading historical data...
Loading historical data...
Loading historical data...
Loading historical data...
Loading historical data...
Loading historical data...

Documentation

Showing up to 5 results
|